nws-alerts: Checking more than four warning/county codes can delay the loading of your pages. You should use a cron job to get the data.
EllijayWeather Historical Data
Daily Summary for November 27, 2018 Units:  English    Metric   Both
Daily Weekly Monthly Yearly
  High: Low: Average:
Temperature: 38.0 °F 28.0 °F 33 °F
Dew Point: 28.0 °F 19.0 °F 23.7 °F
Humidity: 77% 55% 69%
Wind Speed: 11mph 0mph 2.6mph
Wind Gust: 12mph - -
Wind- - West
Pressure: 30.1 in 30.0 in -
Precipitation: 0.000 in    
 
 
Tabular Data for November 27, 2018
Time Temperature Dew Point Pressure Wind Wind Speed Wind Gust Humidity Rainfall Rate (Hourly)
00:04 35.0 °F 28.0 °F 30.0 in Calm   5 mph 75% 0.000 in
00:09 35.0 °F 28.0 °F 30.0 in Calm   3 mph 75% 0.000 in
00:14 35.0 °F 28.0 °F 30.0 in NNW 3 mph 3 mph 75% 0.000 in
00:19 35.0 °F 28.0 °F 30.0 in NW 2 mph 8 mph 75% 0.000 in
00:24 35.0 °F 28.0 °F 30.0 in West 3 mph 9 mph 75% 0.000 in
00:29 35.0 °F 28.0 °F 30.0 in Calm   9 mph 75% 0.000 in
00:34 35.0 °F 28.0 °F 30.0 in NW 4 mph 4 mph 75% 0.000 in
00:39 35.0 °F 28.0 °F 30.0 in NW 3 mph 8 mph 75% 0.000 in
00:44 35.0 °F 28.0 °F 30.0 in NW 4 mph 8 mph 75% 0.000 in
00:49 35.0 °F 28.0 °F 30.0 in NW 1 mph 4 mph 75% 0.000 in
00:54 35.0 °F 28.0 °F 30.0 in NNW 4 mph 5 mph 75% 0.000 in
00:59 35.0 °F 28.0 °F 30.0 in NNW 4 mph 5 mph 75% 0.000 in
01:04 34.0 °F 27.0 °F 30.0 in North 2 mph 2 mph 74% 0.000 in
01:09 34.0 °F 27.0 °F 30.0 in SW 1 mph 2 mph 75% 0.000 in
01:14 34.0 °F 27.0 °F 30.0 in WNW 4 mph 7 mph 75% 0.000 in
01:19 34.0 °F 27.0 °F 30.0 in NW 1 mph 5 mph 74% 0.000 in
01:24 34.0 °F 27.0 °F 30.0 in WNW 1 mph 3 mph 74% 0.000 in
01:29 34.0 °F 27.0 °F 30.0 in Calm   2 mph 74% 0.000 in
01:34 34.0 °F 27.0 °F 30.0 in ENE 1 mph 4 mph 74% 0.000 in
01:39 34.0 °F 27.0 °F 30.0 in West 3 mph 4 mph 75% 0.000 in
01:44 34.0 °F 27.0 °F 30.0 in NW 2 mph 4 mph 74% 0.000 in
01:49 34.0 °F 27.0 °F 30.0 in NW 5 mph 5 mph 74% 0.000 in
01:54 34.0 °F 27.0 °F 30.0 in WNW 3 mph 4 mph 74% 0.000 in
01:59 34.0 °F 27.0 °F 30.0 in Calm   4 mph 74% 0.000 in
02:04 34.0 °F 26.0 °F 30.0 in West 2 mph 2 mph 73% 0.000 in
02:09 34.0 °F 27.0 °F 30.0 in Calm   2 mph 74% 0.000 in
02:14 34.0 °F 27.0 °F 30.0 in NW 1 mph 2 mph 74% 0.000 in
02:19 34.0 °F 27.0 °F 30.0 in North 1 mph 4 mph 74% 0.000 in
02:24 34.0 °F 27.0 °F 30.0 in Calm   3 mph 74% 0.000 in
02:29 34.0 °F 27.0 °F 30.0 in NNW 1 mph 6 mph 74% 0.000 in
02:34 34.0 °F 26.0 °F 30.0 in NNW 2 mph 5 mph 73% 0.000 in
02:39 34.0 °F 26.0 °F 30.0 in Calm   3 mph 74% 0.000 in
02:44 34.0 °F 26.0 °F 30.0 in Calm   4 mph 74% 0.000 in
02:49 34.0 °F 26.0 °F 30.0 in Calm   5 mph 74% 0.000 in
02:54 34.0 °F 26.0 °F 30.0 in WSW 1 mph 3 mph 74% 0.000 in
02:59 33.0 °F 26.0 °F 30.0 in WSW 2 mph 3 mph 74% 0.000 in
03:04 33.0 °F 26.0 °F 30.0 in NNW 3 mph 7 mph 74% 0.000 in
03:09 33.0 °F 26.0 °F 30.0 in North 7 mph 7 mph 74% 0.000 in
03:14 33.0 °F 26.0 °F 30.0 in NNW 4 mph 6 mph 73% 0.000 in
03:19 33.0 °F 25.0 °F 30.0 in North 5 mph 11 mph 72% 0.000 in
03:24 33.0 °F 26.0 °F 30.0 in NW 3 mph 5 mph 73% 0.000 in
03:29 33.0 °F 25.0 °F 30.0 in NNW 2 mph 5 mph 72% 0.000 in
03:34 33.0 °F 25.0 °F 30.0 in West 5 mph 5 mph 72% 0.000 in
03:39 33.0 °F 25.0 °F 30.0 in NNW 2 mph 4 mph 72% 0.000 in
03:44 33.0 °F 26.0 °F 30.0 in NNW 2 mph 2 mph 73% 0.000 in
03:49 33.0 °F 26.0 °F 30.0 in NW 5 mph 6 mph 73% 0.000 in
03:54 33.0 °F 25.0 °F 30.0 in NW 2 mph 6 mph 73% 0.000 in
03:59 33.0 °F 25.0 °F 30.0 in WNW 2 mph 3 mph 73% 0.000 in
04:04 33.0 °F 25.0 °F 30.0 in NW 2 mph 3 mph 73% 0.000 in
04:09 33.0 °F 26.0 °F 30.0 in Calm   2 mph 74% 0.000 in
04:14 33.0 °F 26.0 °F 30.0 in NW 3 mph 5 mph 74% 0.000 in
04:19 33.0 °F 25.0 °F 30.0 in West 7 mph 7 mph 74% 0.000 in
04:24 33.0 °F 25.0 °F 30.0 in Calm   1 mph 74% 0.000 in
04:29 33.0 °F 25.0 °F 30.0 in North 4 mph 5 mph 74% 0.000 in
04:34 33.0 °F 25.0 °F 30.0 in NW 2 mph 4 mph 74% 0.000 in
04:39 33.0 °F 25.0 °F 30.0 in West 5 mph 5 mph 74% 0.000 in
04:44 33.0 °F 25.0 °F 30.0 in WNW 2 mph 6 mph 74% 0.000 in
04:49 32.0 °F 25.0 °F 30.0 in WNW 5 mph 7 mph 74% 0.000 in
04:54 32.0 °F 25.0 °F 30.0 in North 7 mph 8 mph 74% 0.000 in
04:59 32.0 °F 25.0 °F 30.0 in NNW 6 mph 8 mph 74% 0.000 in
05:04 32.0 °F 25.0 °F 30.0 in NW 3 mph 8 mph 75% 0.000 in
05:09 32.0 °F 25.0 °F 30.0 in NW 3 mph 7 mph 75% 0.000 in
05:14 32.0 °F 25.0 °F 30.0 in NNW 3 mph 8 mph 75% 0.000 in
05:19 32.0 °F 25.0 °F 30.0 in NW 4 mph 10 mph 74% 0.000 in
05:24 32.0 °F 24.0 °F 30.0 in NNW 3 mph 6 mph 74% 0.000 in
05:29 32.0 °F 25.0 °F 30.0 in WNW 6 mph 6 mph 75% 0.000 in
05:34 32.0 °F 25.0 °F 30.0 in NW 1 mph 6 mph 75% 0.000 in
05:39 32.0 °F 24.0 °F 30.0 in NW 3 mph 5 mph 75% 0.000 in
05:44 32.0 °F 24.0 °F 30.0 in West 2 mph 3 mph 74% 0.000 in
05:49 31.0 °F 24.0 °F 30.0 in WNW 2 mph 4 mph 74% 0.000 in
05:54 31.0 °F 24.0 °F 30.0 in NW 4 mph 6 mph 74% 0.000 in
05:59 31.0 °F 24.0 °F 30.0 in NW 5 mph 7 mph 74% 0.000 in
06:04 31.0 °F 24.0 °F 30.0 in NW 7 mph 8 mph 74% 0.000 in
06:09 31.0 °F 24.0 °F 30.0 in Calm   1 mph 74% 0.000 in
06:14 31.0 °F 24.0 °F 30.0 in West 3 mph 6 mph 74% 0.000 in
06:19 31.0 °F 24.0 °F 30.0 in West 1 mph 2 mph 75% 0.000 in
06:24 31.0 °F 24.0 °F 30.0 in NW 4 mph 5 mph 75% 0.000 in
06:29 31.0 °F 24.0 °F 30.0 in Calm   5 mph 75% 0.000 in
06:34 31.0 °F 24.0 °F 30.0 in Calm   1 mph 75% 0.000 in
06:39 31.0 °F 24.0 °F 30.0 in Calm     76% 0.000 in
06:44 31.0 °F 24.0 °F 30.0 in Calm   3 mph 76% 0.000 in
06:49 31.0 °F 24.0 °F 30.0 in West 3 mph 3 mph 76% 0.000 in
06:54 31.0 °F 24.0 °F 30.0 in NW 1 mph 3 mph 76% 0.000 in
06:59 30.0 °F 24.0 °F 30.0 in Calm   1 mph 76% 0.000 in
07:04 30.0 °F 24.0 °F 30.0 in Calm     76% 0.000 in
07:09 30.0 °F 24.0 °F 30.0 in WNW 1 mph 1 mph 76% 0.000 in
07:14 30.0 °F 24.0 °F 30.0 in WSW 1 mph 3 mph 76% 0.000 in
07:19 30.0 °F 24.0 °F 30.0 in Calm   4 mph 76% 0.000 in
07:24 30.0 °F 24.0 °F 30.0 in WNW 1 mph 5 mph 77% 0.000 in
07:29 30.0 °F 24.0 °F 30.0 in NNW 1 mph 1 mph 77% 0.000 in
07:34 30.0 °F 24.0 °F 30.0 in Calm   1 mph 76% 0.000 in
07:39 30.0 °F 24.0 °F 30.0 in Calm     77% 0.000 in
07:44 30.0 °F 24.0 °F 30.0 in Calm     77% 0.000 in
07:49 30.0 °F 24.0 °F 30.0 in Calm     77% 0.000 in
07:54 30.0 °F 24.0 °F 30.0 in Calm     77% 0.000 in
07:59 30.0 °F 24.0 °F 30.0 in Calm     77% 0.000 in
08:04 30.0 °F 24.0 °F 30.0 in Calm     77% 0.000 in
08:09 30.0 °F 24.0 °F 30.0 in Calm   4 mph 77% 0.000 in
08:14 30.0 °F 24.0 °F 30.0 in Calm     77% 0.000 in
08:19 30.0 °F 24.0 °F 30.0 in Calm   1 mph 77% 0.000 in
08:24 31.0 °F 24.0 °F 30.0 in Calm   1 mph 76% 0.000 in
08:29 31.0 °F 24.0 °F 30.0 in NNW 3 mph 4 mph 76% 0.000 in
08:34 31.0 °F 24.0 °F 30.0 in WNW 1 mph 4 mph 76% 0.000 in
08:39 31.0 °F 24.0 °F 30.0 in Calm   1 mph 76% 0.000 in
08:44 31.0 °F 24.0 °F 30.0 in Calm   1 mph 75% 0.000 in
08:49 31.0 °F 24.0 °F 30.0 in West 2 mph 2 mph 75% 0.000 in
08:54 31.0 °F 24.0 °F 30.0 in NNW 4 mph 4 mph 75% 0.000 in
08:59 31.0 °F 24.0 °F 30.0 in NW 1 mph 3 mph 75% 0.000 in
09:04 31.0 °F 24.0 °F 30.0 in NW 3 mph 3 mph 75% 0.000 in
09:09 31.0 °F 24.0 °F 30.0 in North 1 mph 1 mph 75% 0.000 in
09:14 32.0 °F 24.0 °F 30.0 in WNW 4 mph 5 mph 75% 0.000 in
09:19 32.0 °F 24.0 °F 30.0 in NW 6 mph 6 mph 74% 0.000 in
09:24 32.0 °F 24.0 °F 30.0 in WNW 6 mph 6 mph 74% 0.000 in
09:29 32.0 °F 24.0 °F 30.0 in WSW 3 mph 5 mph 73% 0.000 in
09:34 32.0 °F 24.0 °F 30.0 in WNW 5 mph 5 mph 73% 0.000 in
09:39 33.0 °F 24.0 °F 30.0 in WNW 5 mph 6 mph 72% 0.000 in
09:44 33.0 °F 24.0 °F 30.0 in Calm   2 mph 72% 0.000 in
09:49 33.0 °F 25.0 °F 30.0 in NW 2 mph 4 mph 72% 0.000 in
09:54 33.0 °F 25.0 °F 30.0 in Calm   6 mph 71% 0.000 in
09:59 33.0 °F 25.0 °F 30.0 in NW 3 mph 8 mph 71% 0.000 in
10:04 33.0 °F 25.0 °F 30.0 in NW 3 mph 3 mph 71% 0.000 in
10:09 33.0 °F 25.0 °F 30.0 in West 1 mph 6 mph 70% 0.000 in
10:14 34.0 °F 25.0 °F 30.0 in North 3 mph 3 mph 70% 0.000 in
10:19 34.0 °F 25.0 °F 30.0 in NE 3 mph 3 mph 69% 0.000 in
10:24 34.0 °F 25.0 °F 30.0 in WNW 4 mph 8 mph 69% 0.000 in
10:29 34.0 °F 25.0 °F 30.0 in WNW 6 mph 8 mph 69% 0.000 in
10:34 34.0 °F 25.0 °F 30.0 in NNW 2 mph 8 mph 68% 0.000 in
10:39 34.0 °F 24.0 °F 30.0 in North 4 mph 5 mph 67% 0.000 in
10:44 34.0 °F 24.0 °F 30.0 in WNW 1 mph 4 mph 67% 0.000 in
10:49 35.0 °F 25.0 °F 30.0 in Calm   4 mph 67% 0.000 in
10:54 35.0 °F 25.0 °F 30.0 in North 2 mph 3 mph 67% 0.000 in
10:59 35.0 °F 25.0 °F 30.0 in NW 6 mph 6 mph 67% 0.000 in
11:04 35.0 °F 25.0 °F 30.0 in WNW 4 mph 9 mph 65% 0.000 in
11:09 35.0 °F 24.0 °F 30.0 in Calm   5 mph 64% 0.000 in
11:14 36.0 °F 25.0 °F 30.0 in North 4 mph 7 mph 65% 0.000 in
11:19 36.0 °F 24.0 °F 30.0 in NNW 8 mph 8 mph 62% 0.000 in
11:24 36.0 °F 24.0 °F 30.0 in Calm   4 mph 61% 0.000 in
11:29 36.0 °F 24.0 °F 30.0 in Calm   1 mph 61% 0.000 in
11:34 36.0 °F 24.0 °F 30.0 in NW 5 mph 11 mph 61% 0.000 in
11:39 36.0 °F 24.0 °F 30.0 in WNW 3 mph 11 mph 60% 0.000 in
11:44 36.0 °F 24.0 °F 30.0 in WNW 7 mph 7 mph 60% 0.000 in
11:49 36.0 °F 24.0 °F 30.0 in NNW 5 mph 7 mph 62% 0.000 in
11:54 36.0 °F 24.0 °F 30.0 in WNW 11 mph 11 mph 60% 0.000 in
11:59 36.0 °F 24.0 °F 30.0 in NNE 3 mph 11 mph 60% 0.000 in
12:04 37.0 °F 24.0 °F 30.0 in Calm   1 mph 61% 0.000 in
12:09 37.0 °F 24.0 °F 30.0 in NW 4 mph 6 mph 60% 0.000 in
12:14 37.0 °F 24.0 °F 30.0 in WNW 3 mph 5 mph 60% 0.000 in
12:19 37.0 °F 25.0 °F 30.0 in WSW 4 mph 5 mph 62% 0.000 in
12:24 37.0 °F 25.0 °F 30.0 in NW 5 mph 6 mph 62% 0.000 in
12:29 37.0 °F 25.0 °F 30.0 in NW 5 mph 6 mph 60% 0.000 in
12:34 37.0 °F 24.0 °F 30.0 in NNW 6 mph 11 mph 60% 0.000 in
12:39 37.0 °F 25.0 °F 30.0 in West 4 mph 7 mph 61% 0.000 in
12:44 37.0 °F 25.0 °F 30.0 in WNW 2 mph 4 mph 61% 0.000 in
12:49 37.0 °F 25.0 °F 30.0 in Calm   6 mph 61% 0.000 in
12:54 37.0 °F 25.0 °F 30.0 in West 1 mph 2 mph 61% 0.000 in
12:59 37.0 °F 25.0 °F 30.0 in WNW 3 mph 10 mph 61% 0.000 in
13:04 38.0 °F 25.0 °F 30.0 in WNW 2 mph 5 mph 61% 0.000 in
13:09 38.0 °F 25.0 °F 30.0 in NW 7 mph 10 mph 60% 0.000 in
13:14 37.0 °F 24.0 °F 30.0 in NW 5 mph 10 mph 58% 0.000 in
13:19 37.0 °F 23.0 °F 30.0 in NW 5 mph 9 mph 57% 0.000 in
13:24 37.0 °F 24.0 °F 30.0 in WNW 3 mph 6 mph 58% 0.000 in
13:29 37.0 °F 24.0 °F 30.0 in NW 3 mph 4 mph 59% 0.000 in
13:34 38.0 °F 24.0 °F 30.0 in West 8 mph 9 mph 58% 0.000 in
13:39 37.0 °F 23.0 °F 30.0 in North 9 mph 9 mph 57% 0.000 in
13:44 37.0 °F 24.0 °F 30.0 in NW 6 mph 11 mph 58% 0.000 in
13:49 37.0 °F 24.0 °F 30.0 in NNE 6 mph 11 mph 58% 0.000 in
13:54 38.0 °F 24.0 °F 30.0 in WNW 4 mph 6 mph 57% 0.000 in
13:59 38.0 °F 24.0 °F 30.0 in NW 2 mph 8 mph 57% 0.000 in
14:04 38.0 °F 24.0 °F 30.0 in WNW 3 mph 6 mph 57% 0.000 in
14:09 38.0 °F 24.0 °F 30.0 in West 4 mph 8 mph 57% 0.000 in
14:14 38.0 °F 24.0 °F 30.0 in NW 4 mph 8 mph 57% 0.000 in
14:19 37.0 °F 24.0 °F 30.0 in Calm   5 mph 57% 0.000 in
14:24 38.0 °F 24.0 °F 30.0 in NW 6 mph 6 mph 57% 0.000 in
14:29 38.0 °F 23.0 °F 30.0 in WNW 6 mph 8 mph 56% 0.000 in
14:34 38.0 °F 23.0 °F 30.0 in Calm   6 mph 56% 0.000 in
14:39 38.0 °F 24.0 °F 30.0 in NNE 1 mph 6 mph 57% 0.000 in
14:44 38.0 °F 24.0 °F 30.0 in North 4 mph 5 mph 58% 0.000 in
14:49 38.0 °F 24.0 °F 30.0 in NNE 3 mph 4 mph 56% 0.000 in
14:54 38.0 °F 24.0 °F 30.0 in NNE 10 mph 12 mph 56% 0.000 in
14:59 38.0 °F 23.0 °F 30.0 in NW 6 mph 9 mph 55% 0.000 in
15:04 37.0 °F 23.0 °F 30.0 in WSW 4 mph 5 mph 57% 0.000 in
15:09 38.0 °F 24.0 °F 30.0 in NW 4 mph 5 mph 58% 0.000 in
15:14 38.0 °F 25.0 °F 30.0 in NNW 6 mph 8 mph 59% 0.000 in
15:19 38.0 °F 24.0 °F 30.0 in NNW 1 mph 8 mph 57% 0.000 in
15:24 37.0 °F 24.0 °F 30.0 in NW 3 mph 6 mph 58% 0.000 in
15:29 37.0 °F 23.0 °F 30.0 in NNE 3 mph 6 mph 57% 0.000 in
15:34 37.0 °F 24.0 °F 30.0 in NNW 3 mph 7 mph 58% 0.000 in
15:39 37.0 °F 24.0 °F 30.0 in NNW 4 mph 7 mph 60% 0.000 in
15:44 37.0 °F 24.0 °F 30.0 in NNW 3 mph 7 mph 59% 0.000 in
15:49 37.0 °F 24.0 °F 30.0 in Calm   7 mph 59% 0.000 in
15:54 37.0 °F 24.0 °F 30.0 in NW 1 mph 9 mph 58% 0.000 in
15:59 37.0 °F 24.0 °F 30.0 in NNW 2 mph 3 mph 61% 0.000 in
16:04 37.0 °F 23.0 °F 30.0 in WNW 4 mph 10 mph 58% 0.000 in
16:09 36.0 °F 23.0 °F 30.0 in WNW 7 mph 8 mph 58% 0.000 in
16:14 36.0 °F 23.0 °F 30.0 in NNE 3 mph 4 mph 58% 0.000 in
16:19 36.0 °F 23.0 °F 30.0 in West 5 mph 8 mph 59% 0.000 in
16:24 36.0 °F 24.0 °F 30.0 in NW 3 mph 7 mph 61% 0.000 in
16:29 35.0 °F 23.0 °F 30.0 in WSW 3 mph 7 mph 60% 0.000 in
16:34 35.0 °F 23.0 °F 30.0 in NW 5 mph 5 mph 61% 0.000 in
16:39 35.0 °F 23.0 °F 30.0 in NNW 3 mph 5 mph 61% 0.000 in
16:44 35.0 °F 23.0 °F 30.0 in NW 3 mph 9 mph 62% 0.000 in
16:49 35.0 °F 23.0 °F 30.0 in WNW 3 mph 9 mph 61% 0.000 in
16:54 35.0 °F 23.0 °F 30.0 in Calm   3 mph 62% 0.000 in
16:59 34.0 °F 23.0 °F 30.0 in NW 1 mph 5 mph 63% 0.000 in
17:04 34.0 °F 23.0 °F 30.0 in NE 5 mph 5 mph 63% 0.000 in
17:09 34.0 °F 23.0 °F 30.0 in NW 1 mph 1 mph 64% 0.000 in
17:14 34.0 °F 23.0 °F 30.0 in WNW 2 mph 3 mph 64% 0.000 in
17:19 33.0 °F 23.0 °F 30.0 in West 1 mph 4 mph 64% 0.000 in
17:24 33.0 °F 23.0 °F 30.0 in North 1 mph 7 mph 64% 0.000 in
17:29 33.0 °F 23.0 °F 30.0 in NW 4 mph 4 mph 65% 0.000 in
17:34 33.0 °F 23.0 °F 30.0 in NW 1 mph 1 mph 66% 0.000 in
17:39 33.0 °F 23.0 °F 30.0 in WNW 6 mph 6 mph 66% 0.000 in
17:44 33.0 °F 23.0 °F 30.0 in Calm   2 mph 67% 0.000 in
17:49 32.0 °F 23.0 °F 30.1 in Calm     67% 0.000 in
17:54 32.0 °F 23.0 °F 30.1 in Calm   2 mph 67% 0.000 in
17:59 32.0 °F 23.0 °F 30.1 in West 1 mph 1 mph 67% 0.000 in
18:04 32.0 °F 22.0 °F 30.1 in WSW 5 mph 5 mph 67% 0.000 in
18:09 32.0 °F 22.0 °F 30.1 in Calm   5 mph 68% 0.000 in
18:14 32.0 °F 22.0 °F 30.1 in Calm   1 mph 68% 0.000 in
18:19 32.0 °F 22.0 °F 30.1 in Calm   1 mph 68% 0.000 in
18:24 31.0 °F 22.0 °F 30.1 in NNW 1 mph 2 mph 69% 0.000 in
18:29 31.0 °F 22.0 °F 30.1 in NW 2 mph 4 mph 70% 0.000 in
18:34 31.0 °F 22.0 °F 30.1 in WNW 3 mph 4 mph 70% 0.000 in
18:39 31.0 °F 22.0 °F 30.1 in NNW 4 mph 4 mph 70% 0.000 in
18:44 31.0 °F 22.0 °F 30.1 in NNW 7 mph 7 mph 69% 0.000 in
18:49 31.0 °F 22.0 °F 30.1 in WNW 3 mph 6 mph 69% 0.000 in
18:54 31.0 °F 22.0 °F 30.1 in North 4 mph 6 mph 69% 0.000 in
18:59 30.0 °F 21.0 °F 30.1 in NW 4 mph 6 mph 69% 0.000 in
19:04 30.0 °F 21.0 °F 30.1 in WSW 4 mph 7 mph 69% 0.000 in
19:09 30.0 °F 21.0 °F 30.1 in WNW 4 mph 7 mph 69% 0.000 in
19:14 30.0 °F 21.0 °F 30.1 in NNW 4 mph 7 mph 69% 0.000 in
19:19 30.0 °F 21.0 °F 30.1 in NNW 5 mph 9 mph 70% 0.000 in
19:24 30.0 °F 21.0 °F 30.1 in WNW 2 mph 9 mph 69% 0.000 in
19:29 30.0 °F 21.0 °F 30.1 in Calm   3 mph 69% 0.000 in
19:34 30.0 °F 21.0 °F 30.1 in NW 9 mph 9 mph 69% 0.000 in
19:39 30.0 °F 21.0 °F 30.1 in West 3 mph 11 mph 69% 0.000 in
19:44 30.0 °F 21.0 °F 30.1 in Calm   1 mph 69% 0.000 in
19:49 30.0 °F 21.0 °F 30.1 in Calm   2 mph 69% 0.000 in
19:54 30.0 °F 21.0 °F 30.1 in NW 1 mph 3 mph 69% 0.000 in
19:59 30.0 °F 21.0 °F 30.1 in North 3 mph 3 mph 69% 0.000 in
20:04 30.0 °F 21.0 °F 30.1 in North 3 mph 6 mph 70% 0.000 in
20:09 30.0 °F 21.0 °F 30.1 in Calm   1 mph 70% 0.000 in
20:14 30.0 °F 21.0 °F 30.1 in Calm     70% 0.000 in
20:19 29.0 °F 21.0 °F 30.1 in Calm     70% 0.000 in
20:24 29.0 °F 21.0 °F 30.1 in West 4 mph 5 mph 70% 0.000 in
20:28 29.0 °F 21.0 °F 30.1 in Calm   2 mph 70% 0.000 in
20:34 29.0 °F 21.0 °F 30.1 in Calm   3 mph 70% 0.000 in
20:39 29.0 °F 21.0 °F 30.1 in Calm   1 mph 70% 0.000 in
20:44 29.0 °F 21.0 °F 30.1 in Calm     71% 0.000 in
20:49 29.0 °F 21.0 °F 30.1 in Calm   1 mph 71% 0.000 in
20:54 29.0 °F 20.0 °F 30.1 in Calm   2 mph 70% 0.000 in
20:59 29.0 °F 20.0 °F 30.1 in NW 4 mph 5 mph 70% 0.000 in
21:04 29.0 °F 20.0 °F 30.1 in Calm   1 mph 69% 0.000 in
21:09 29.0 °F 20.0 °F 30.1 in NW 6 mph 12 mph 69% 0.000 in
21:14 29.0 °F 20.0 °F 30.1 in WNW 3 mph 6 mph 68% 0.000 in
21:19 30.0 °F 20.0 °F 30.1 in NNW 3 mph 7 mph 68% 0.000 in
21:24 30.0 °F 20.0 °F 30.1 in West 1 mph 4 mph 68% 0.000 in
21:29 30.0 °F 21.0 °F 30.1 in Calm   4 mph 68% 0.000 in
21:34 30.0 °F 21.0 °F 30.1 in WNW 1 mph 3 mph 68% 0.000 in
21:39 30.0 °F 21.0 °F 30.1 in Calm   3 mph 68% 0.000 in
21:44 30.0 °F 21.0 °F 30.1 in Calm   1 mph 68% 0.000 in
21:49 30.0 °F 21.0 °F 30.1 in NW 3 mph 3 mph 68% 0.000 in
21:54 30.0 °F 21.0 °F 30.1 in Calm   3 mph 68% 0.000 in
21:59 30.0 °F 21.0 °F 30.1 in NNW 1 mph 4 mph 69% 0.000 in
22:04 30.0 °F 21.0 °F 30.1 in NNE 1 mph 1 mph 68% 0.000 in
22:09 30.0 °F 21.0 °F 30.1 in West 5 mph 6 mph 69% 0.000 in
22:14 30.0 °F 21.0 °F 30.1 in Calm   5 mph 68% 0.000 in
22:19 30.0 °F 21.0 °F 30.1 in NNE 3 mph 4 mph 68% 0.000 in
22:24 30.0 °F 21.0 °F 30.1 in NNW 1 mph 3 mph 68% 0.000 in
22:29 30.0 °F 21.0 °F 30.1 in North 3 mph 4 mph 68% 0.000 in
22:34 30.0 °F 21.0 °F 30.1 in NW 4 mph 5 mph 68% 0.000 in
22:39 30.0 °F 21.0 °F 30.1 in Calm   3 mph 69% 0.000 in
22:44 30.0 °F 21.0 °F 30.1 in NW 4 mph 5 mph 69% 0.000 in
22:49 30.0 °F 21.0 °F 30.1 in Calm   3 mph 69% 0.000 in
22:54 30.0 °F 21.0 °F 30.1 in NW 3 mph 3 mph 69% 0.000 in
22:59 29.0 °F 20.0 °F 30.1 in West 4 mph 6 mph 68% 0.000 in
23:04 29.0 °F 20.0 °F 30.1 in NW 1 mph 4 mph 69% 0.000 in
23:09 29.0 °F 20.0 °F 30.1 in NNW 2 mph 7 mph 69% 0.000 in
23:14 29.0 °F 21.0 °F 30.1 in North 5 mph 8 mph 70% 0.000 in
23:19 29.0 °F 21.0 °F 30.1 in WSW 2 mph 8 mph 70% 0.000 in
23:24 29.0 °F 20.0 °F 30.1 in NE 2 mph 5 mph 69% 0.000 in
23:29 29.0 °F 20.0 °F 30.1 in WNW 6 mph 6 mph 69% 0.000 in
23:34 29.0 °F 19.0 °F 30.1 in West 3 mph 7 mph 68% 0.000 in
23:39 29.0 °F 20.0 °F 30.1 in WNW 3 mph 7 mph 69% 0.000 in
23:44 28.0 °F 20.0 °F 30.1 in NW 4 mph 6 mph 69% 0.000 in
23:49 28.0 °F 19.0 °F 30.1 in NNW 3 mph 7 mph 68% 0.000 in
23:54 28.0 °F 19.0 °F 30.1 in NNE 2 mph 7 mph 68% 0.000 in
23:59 28.0 °F 19.0 °F 30.1 in WNW 3 mph 5 mph 68% 0.000 in
East Ellijay Weather
Compliments of Weather Underground - 2 mb